Clarion, IA

12:01 AM CST on November 19, 2019 (GMT -0600)
Clarion Municipal

Weather History for KCAV - September, 2019

Change the Weather History Date:

Saturday, September 7, 2019

  Actual Average Record
Temperature  
Mean Temperature 62 °F -  
Max Temperature 71 °F 79 °F 96 °F (1971)
Min Temperature 53 °F 53 °F 35 °F (1986)
Degree Days  
Heating Degree Days 3    
Growing Degree Days 12 (Base 50)    
Moisture  
Dew Point 60 °F    
Average Humidity 92    
Maximum Humidity 100    
Minimum Humidity 69    
Precipitation  
Precipitation 0.06 in - - ()
Sea Level Pressure  
Sea Level Pressure 30.08 in    
Wind  
Wind Speed 3 mph (ENE)    
Max Wind Speed 9 mph    
Max Gust Speed 16 mph    
Visibility 10 miles    
Events      
Averages and records for this station are not official NWS values.
T = Trace of Precipitation, MM = Missing Value Source: NWS Daily Summary

Daily Weather History Graph

Daily Weather History Graph

Search for Another Location

Airport or City:

Astronomy

Sep. 07, 2019 Rise Set
Actual Time 6:46 AM CDT 7:39 PM CDT
Civil Twilight 6:17 AM CDT 8:08 PM CDT
Nautical Twilight 5:43 AM CDT 8:42 PM CDT
Astronomical Twilight 5:07 AM CDT 9:17 PM CDT
Moon 4:02 PM CDT (9/7) 12:32 AM CDT (9/7)
Length of Visible Light 13h 50m
Length of Day
12h 53m
Waxing Gibbous, 66% of the Moon is Illuminated
Sep 7
Waxing Gibbous
Sep 13
Full
Sep 21
Last Quarter
Sep 28
New
Oct 5
First Quarter

Hourly Weather History & Observations

Time (CDT) Temp. Dew Point Humidity Pressure Visibility Wind Dir Wind Speed Gust Speed Precip Events Conditions
12:15 AM 55.4 °F 53.6 °F 94% 30.12 in 10.0 mi Calm Calm - N/A   Clear
12:35 AM 55.4 °F 53.6 °F 94% 30.12 in 10.0 mi SW 3.5 mph - N/A   Clear
12:55 AM 55.4 °F 53.6 °F 94% 30.13 in 10.0 mi Calm Calm - N/A   Clear
1:15 AM 55.4 °F 53.6 °F 94% 30.12 in 10.0 mi Calm Calm - N/A   Clear
1:35 AM 53.6 °F 53.6 °F 100% 30.12 in 10.0 mi Calm Calm - N/A   Clear
1:55 AM 55.4 °F 55.4 °F 100% 30.12 in 10.0 mi Calm Calm - N/A   Partly Cloudy
2:15 AM 55.4 °F 55.4 °F 100% 30.12 in 10.0 mi Calm Calm - N/A   Mostly Cloudy
2:35 AM 55.4 °F 55.4 °F 100% 30.12 in 10.0 mi South 3.5 mph - N/A   Mostly Cloudy
2:55 AM 55.4 °F 55.4 °F 100% 30.12 in 10.0 mi Calm Calm - N/A   Mostly Cloudy
3:15 AM 57.2 °F 55.4 °F 94% 30.12 in 10.0 mi Calm Calm - N/A   Overcast
3:35 AM 57.2 °F 57.2 °F 100% 30.11 in 10.0 mi Calm Calm - N/A   Mostly Cloudy
3:55 AM 59.0 °F 57.2 °F 94% 30.11 in 10.0 mi Calm Calm - N/A   Mostly Cloudy
4:15 AM 59.0 °F 59.0 °F 100% 30.11 in 10.0 mi Calm Calm - N/A   Overcast
4:35 AM 59.0 °F 59.0 °F 100% 30.10 in 10.0 mi Calm Calm - N/A   Overcast
4:55 AM 59.0 °F 59.0 °F 100% 30.10 in 10.0 mi Calm Calm - N/A   Overcast
5:15 AM 59.0 °F 59.0 °F 100% 30.10 in 10.0 mi North 6.9 mph - N/A   Overcast
5:35 AM 59.0 °F 59.0 °F 100% 30.10 in 10.0 mi Calm Calm - N/A   Partly Cloudy
5:55 AM 59.0 °F 59.0 °F 100% 30.10 in 10.0 mi Calm Calm - N/A   Mostly Cloudy
6:15 AM 59.0 °F 59.0 °F 100% 30.11 in 10.0 mi Calm Calm - N/A   Mostly Cloudy
6:35 AM 59.0 °F 59.0 °F 100% 30.12 in 10.0 mi West 3.5 mph - N/A   Mostly Cloudy
6:55 AM 59.0 °F 59.0 °F 100% 30.12 in 9.0 mi Calm Calm - N/A   Mostly Cloudy
7:15 AM 59.0 °F 59.0 °F 100% 30.12 in 10.0 mi Calm Calm - N/A   Scattered Clouds
7:35 AM 60.8 °F 59.0 °F 94% 30.11 in 10.0 mi Calm Calm - N/A   Partly Cloudy
7:55 AM 60.8 °F 60.8 °F 100% 30.11 in 10.0 mi Calm Calm - N/A   Clear
8:15 AM 60.8 °F 60.8 °F 100% 30.11 in 10.0 mi Calm Calm - N/A   Clear
8:35 AM 60.8 °F 60.8 °F 100% 30.10 in 10.0 mi Calm Calm - N/A   Clear
8:55 AM 62.6 °F 62.6 °F 100% 30.09 in 10.0 mi Calm Calm - N/A   Clear
9:15 AM 64.4 °F 62.6 °F 94% 30.09 in 10.0 mi East 8.1 mph - N/A   Clear
9:35 AM 66.2 °F 60.8 °F 83% 30.09 in 10.0 mi East 6.9 mph - N/A   Clear
9:55 AM 68.0 °F 62.6 °F 83% 30.09 in 10.0 mi Variable 5.8 mph - N/A   Clear
10:15 AM 69.8 °F 62.6 °F 78% 30.10 in 10.0 mi East 4.6 mph - N/A   Clear
10:35 AM 69.8 °F 62.6 °F 78% 30.11 in 10.0 mi Calm Calm - N/A   Clear
10:55 AM 69.8 °F 60.8 °F 73% 30.10 in 10.0 mi Calm Calm - N/A   Clear
11:15 AM 71.6 °F 62.6 °F 73% 30.11 in 10.0 mi West 5.8 mph - N/A   Partly Cloudy
11:35 AM 71.6 °F 62.6 °F 73% 30.10 in 10.0 mi Variable 3.5 mph - N/A   Mostly Cloudy
11:55 AM 71.6 °F 62.6 °F 73% 30.10 in 10.0 mi West 4.6 mph - N/A   Scattered Clouds
12:15 PM 71.6 °F 62.6 °F 73% 30.10 in 10.0 mi WNW 5.8 mph - N/A   Partly Cloudy
12:35 PM 71.6 °F 60.8 °F 69% 30.09 in 10.0 mi NNW 4.6 mph - N/A   Partly Cloudy
12:55 PM 69.8 °F 62.6 °F 78% 30.09 in 10.0 mi North 3.5 mph - N/A   Partly Cloudy
1:15 PM 69.8 °F 64.4 °F 83% 30.09 in 10.0 mi North 4.6 mph - N/A   Clear
1:35 PM 69.8 °F 64.4 °F 83% 30.08 in 9.0 mi Calm Calm - N/A   Clear
1:55 PM 68.0 °F 64.4 °F 88% 30.07 in - NNE 4.6 mph - N/A   Unknown
2:15 PM 68.0 °F 64.4 °F 88% 30.07 in 10.0 mi NE 6.9 mph - N/A   Partly Cloudy
2:35 PM 68.0 °F 64.4 °F 88% 30.06 in 10.0 mi NE 6.9 mph - N/A   Partly Cloudy
2:55 PM 68.0 °F 62.6 °F 83% 30.05 in 10.0 mi ENE 5.8 mph - N/A   Partly Cloudy
3:15 PM 68.0 °F 62.6 °F 83% 30.03 in 10.0 mi ENE 8.1 mph - N/A   Clear
3:35 PM 66.2 °F 62.6 °F 88% 30.03 in 6.0 mi East 8.1 mph - N/A   Clear
3:55 PM 64.4 °F 62.6 °F 94% 30.06 in 7.0 mi Calm Calm - 0.03 in   Clear
4:15 PM 66.2 °F 64.4 °F 94% 30.06 in 8.0 mi ENE 5.8 mph - N/A   Scattered Clouds
4:35 PM 64.4 °F 64.4 °F 100% 30.06 in 8.0 mi ENE 6.9 mph - N/A   Mostly Cloudy
4:55 PM 64.4 °F 64.4 °F 100% 30.05 in 10.0 mi ENE 8.1 mph - 0.02 in   Scattered Clouds
5:15 PM 64.4 °F 62.6 °F 94% 30.04 in 10.0 mi ENE 6.9 mph 13.8 mph N/A   Partly Cloudy
5:35 PM 64.4 °F 62.6 °F 94% 30.04 in 10.0 mi ENE 8.1 mph - N/A   Mostly Cloudy
5:55 PM 62.6 °F 60.8 °F 94% 30.03 in 10.0 mi ENE 9.2 mph 16.1 mph N/A   Overcast
6:15 PM 62.6 °F 60.8 °F 94% 30.04 in 10.0 mi East 9.2 mph - N/A   Overcast
6:35 PM 62.6 °F 60.8 °F 94% 30.04 in 10.0 mi East 9.2 mph - N/A   Overcast
6:55 PM 62.6 °F 60.8 °F 94% 30.05 in 10.0 mi East 4.6 mph - N/A   Overcast
7:15 PM 62.6 °F 60.8 °F 94% 30.04 in 10.0 mi ESE 4.6 mph - N/A   Overcast
7:35 PM 60.8 °F 60.8 °F 100% 30.04 in 10.0 mi ESE 5.8 mph - N/A   Overcast
7:55 PM 60.8 °F 59.0 °F 94% 30.05 in 10.0 mi East 5.8 mph - 0.01 in   Overcast
8:15 PM 60.8 °F 59.0 °F 94% 30.05 in 10.0 mi East 5.8 mph - N/A   Overcast
8:35 PM 60.8 °F 59.0 °F 94% 30.04 in 10.0 mi East 8.1 mph - N/A   Overcast
8:55 PM 60.8 °F 59.0 °F 94% 30.05 in 10.0 mi East 5.8 mph - N/A   Overcast
9:15 PM 60.8 °F 59.0 °F 94% 30.05 in 10.0 mi East 4.6 mph - N/A   Overcast
10:15 PM 60.8 °F 59.0 °F 94% 30.03 in 10.0 mi East 5.8 mph - N/A   Overcast
10:35 PM 60.8 °F 57.2 °F 88% 30.03 in 10.0 mi East 6.9 mph - N/A   Overcast
10:55 PM 60.8 °F 57.2 °F 88% 30.05 in 10.0 mi East 6.9 mph - N/A   Overcast
11:15 PM 60.8 °F 57.2 °F 88% 30.05 in 10.0 mi East 6.9 mph - N/A   Overcast
11:55 PM 60.8 °F 57.2 °F 88% 30.03 in 10.0 mi East 6.9 mph - N/A   Overcast